GFSFLT1_925_thetae_000.txt.gz
Theta_e
346 345 345 346 345 348 354 356 356 356 357 355 355 342 332 333 334 335 334 335 336 334 333 334 333 333 332 331 334 336 336 336 333
343 344 345 345 345 348 351 354 355 355 355 356 351 346 336 336 335 336 336 338 339 333 330 335 334 333 333 332 334 333 334 335 335
338 342 345 345 345 347 351 352 355 355 354 353 351 344 339 336 336 332 338 338 336 330 335 333 333 334 335 335 333 332 332 334 335
335 340 342 345 344 346 351 352 354 355 353 352 349 342 340 337 340 340 336 334 333 330 332 333 335 336 335 333 332 333 334 334 335
337 336 340 342 343 344 349 351 353 355 353 352 350 343 341 339 342 343 340 337 336 335 335 334 333 332 331 330 331 333 333 333 334
333 336 336 341 340 342 346 349 353 353 353 352 350 345 344 342 343 343 338 335 335 335 335 335 333 332 331 333 333 331 330 331 333
335 338 336 340 341 341 345 349 351 353 353 352 350 346 345 343 342 335 334 335 335 335 334 335 334 332 333 334 331 330 331 333 334
336 336 341 339 342 343 346 348 350 352 352 351 350 346 346 344 338 338 336 334 334 334 334 335 334 333 333 333 331 330 333 332 330
335 338 346 340 342 345 347 348 349 350 350 350 348 344 345 343 340 339 337 336 335 335 334 336 334 333 333 333 329 331 331 330 329
330 332 336 345 345 345 349 350 349 348 347 347 346 344 342 342 341 338 337 337 337 335 334 334 335 333 334 330 330 330 331 330 328
330 329 329 331 340 346 350 352 350 347 344 344 343 342 342 341 341 339 338 337 337 335 335 336 336 336 334 332 332 331 332 330 328
328 328 329 332 336 341 347 351 350 345 341 342 341 340 340 340 340 340 338 337 336 336 336 336 337 336 326 332 332 327 330 329 327
331 333 335 337 340 346 350 349 345 342 341 340 340 340 340 339 338 338 337 337 336 336 336 338 337 335 333 333 329 330 328 327 322
332 335 338 341 345 349 350 346 343 340 339 340 340 340 338 337 339 339 337 337 337 337 339 338 335 333 329 331 331 328 327 324 324
329 332 336 340 348 351 347 343 343 340 339 339 340 339 339 338 332 334 340 338 339 339 338 334 332 330 328 330 330 327 325 325 323
328 328 332 337 343 347 347 344 342 337 338 341 338 337 336 327 328 330 330 341 340 337 332 329 329 329 331 329 326 325 323 322 319
341 339 337 346 341 337 334 339 341 340 337 335 332 329 330 329 328 327 329 338 336 332 331 332 330 330 328 325 322 321 320 318 317
337 335 336 337 338 335 333 335 334 334 334 333 330 330 329 330 328 331 336 334 333 332 328 325 326 324 323 323 320 319 317 317 315
335 334 336 335 336 334 330 330 330 329 326 326 327 327 326 327 329 332 335 333 325 322 321 321 321 320 319 318 316 314 312 312 312
335 335 335 335 335 335 333 331 329 328 327 326 325 326 330 333 333 334 329 325 324 319 318 318 318 316 315 313 311 311 312 314 314

GFSFLT1_925_thetae_003.txt.gz
Theta_e
345 347 347 350 350 349 349 352 354 354 355 355 356 357 356 358 352 332 334 339 338 335 334 331 334 332 330 329 331 334 335 334 334
343 346 345 350 350 349 350 352 354 355 356 356 356 355 356 349 331 332 329 332 334 334 331 331 332 332 332 331 331 333 332 333 333
341 345 344 347 349 347 351 352 354 355 355 355 355 354 352 341 332 333 333 335 336 336 331 330 332 332 332 332 332 332 331 330 333
339 343 344 345 346 346 348 352 354 354 354 354 353 352 350 337 335 334 335 335 336 336 330 332 331 332 334 334 333 330 330 332 333
335 338 342 343 344 345 345 348 351 353 353 352 351 351 349 340 336 336 334 334 333 330 326 328 330 332 332 332 330 328 330 331 331
334 335 338 343 343 343 344 347 349 351 353 351 349 349 347 341 337 338 339 337 335 333 332 332 333 331 330 328 329 330 330 330 330
336 335 336 339 342 342 343 344 348 350 353 352 350 348 346 342 338 339 342 342 339 336 335 334 333 331 328 329 330 330 329 330 330
333 335 334 335 339 339 341 342 347 349 352 352 351 348 346 343 338 337 343 343 339 335 335 333 331 330 330 330 330 331 329 329 331
333 335 335 334 336 338 338 341 345 348 351 352 351 349 348 343 338 337 343 341 335 334 334 333 331 331 332 331 331 331 328 329 329
334 335 339 333 334 335 338 340 344 347 350 351 351 350 346 345 345 341 340 336 336 333 333 332 332 332 333 331 331 331 328 329 329
330 332 335 340 336 336 341 343 345 347 349 351 350 347 345 343 341 341 340 336 337 335 334 334 333 332 332 333 332 331 331 329 330
329 328 327 331 343 344 342 346 348 348 347 348 347 345 343 344 342 341 339 338 337 336 335 335 334 333 333 335 332 330 331 328 329
328 326 329 331 335 339 342 343 349 347 343 344 344 344 344 344 341 340 339 339 336 337 336 336 335 335 335 334 332 332 329 328 326
330 331 335 337 340 343 343 346 348 344 341 342 343 343 342 343 340 339 337 336 334 331 331 335 336 335 335 333 332 327 329 327 326
327 327 329 334 339 347 346 346 346 340 340 341 341 341 341 339 338 337 335 335 331 329 329 330 335 334 333 331 327 329 328 325 324
334 335 337 338 339 344 346 344 344 339 339 340 340 340 338 333 332 329 328 328 330 329 327 330 334 332 329 328 329 327 325 323 321
337 336 336 340 341 339 339 340 340 339 339 340 340 335 333 332 333 333 331 329 328 329 332 333 330 328 330 329 326 323 321 320 318
337 335 336 338 336 336 336 338 337 338 337 338 335 333 332 331 329 328 329 331 334 334 332 330 330 329 327 326 321 319 318 318 317
333 332 335 335 333 334 334 333 333 334 335 336 332 330 327 326 326 326 328 330 327 329 327 324 325 323 322 322 319 317 315 314 313
334 333 334 333 332 332 332 332 332 329 327 326 326 327 329 328 326 326 329 328 326 318 317 319 319 318 317 315 313 312 313 313 313

GFSFLT1_925_thetae_006.txt.gz
Theta_e
344 346 347 346 344 345 346 347 347 348 348 349 349 352 353 354 355 354 354 339 341 343 336 335 332 336 335 329 328 332 335 334 334
343 346 347 348 346 345 346 347 348 348 350 350 350 352 354 354 356 354 353 334 339 338 336 334 333 333 331 330 329 331 333 331 332
341 343 347 347 348 347 347 347 348 349 350 351 351 351 353 353 354 356 342 328 334 335 334 331 332 331 331 331 330 330 332 331 329
339 340 344 345 348 349 348 348 348 350 351 353 353 352 353 353 354 351 330 329 327 331 333 332 328 331 331 331 332 332 331 329 330
333 338 342 343 347 348 349 348 348 350 351 353 353 352 351 351 352 345 332 332 331 335 335 334 330 331 331 332 334 333 330 328 330
334 338 340 342 344 347 347 347 349 350 352 352 353 352 350 346 347 339 333 333 332 333 334 329 330 329 330 331 331 329 328 329 329
333 336 340 341 342 344 344 344 347 350 351 352 352 350 347 344 345 342 335 333 332 331 331 327 328 331 331 330 328 328 329 329 329
335 333 335 340 342 341 342 342 343 346 349 351 351 349 345 346 347 342 335 334 335 335 334 333 333 332 332 330 328 329 330 330 329
336 336 334 334 338 339 340 341 341 345 347 349 350 348 345 344 342 340 337 336 337 338 338 337 335 334 332 330 328 329 330 330 330
336 335 335 333 332 335 336 338 340 344 346 349 351 349 346 344 341 338 337 335 336 341 341 338 335 334 333 331 330 330 330 331 329
332 332 334 332 330 332 334 336 338 341 344 348 350 350 348 344 341 338 338 331 335 340 340 335 334 333 333 331 331 332 331 331 331
329 331 333 335 334 334 335 337 339 341 344 347 350 349 348 345 342 339 338 337 335 335 335 334 333 333 333 332 331 332 333 330 331
326 328 330 333 338 340 341 340 342 344 344 347 348 348 347 346 344 340 337 335 335 334 334 334 334 333 331 331 332 333 331 331 329
329 332 335 337 339 342 342 342 343 345 345 345 346 346 345 343 344 342 338 336 335 334 333 333 330 328 328 328 327 331 331 328 328
333 333 334 335 336 339 341 343 344 344 343 342 344 344 342 341 341 339 338 336 334 332 331 330 328 328 326 324 323 329 327 329 328
334 335 336 339 340 341 341 343 342 342 339 341 340 340 338 337 337 337 336 334 330 329 328 328 327 327 324 327 329 327 328 328 326
335 335 336 338 338 337 336 338 339 338 338 339 339 334 332 330 329 327 328 327 328 329 328 327 326 329 330 329 327 327 327 325 322
334 333 335 335 335 335 335 337 337 338 338 339 336 333 333 331 330 331 329 328 328 327 327 330 331 330 330 328 326 326 323 320 318
332 333 334 333 334 336 336 337 337 337 339 339 338 335 332 330 328 327 328 326 325 328 331 330 330 328 326 324 323 322 319 318 316
330 333 335 335 333 334 334 334 334 335 337 337 334 332 330 328 324 324 326 326 323 321 322 326 323 321 320 320 320 318 315 313 312

GFSFLT1_925_thetae_012.txt.gz
Theta_e
349 349 346 347 348 348 349 350 351 352 353 357 358 358 358 359 360 358 356 354 345 343 340 340 342 346 340 339 341 341 337 336 336
347 350 346 346 348 347 348 350 351 353 356 357 357 357 358 359 359 358 353 352 352 346 342 340 343 342 340 338 341 338 336 335 337
346 349 349 346 348 348 348 350 350 352 354 356 356 356 357 357 358 359 357 356 354 346 344 343 342 342 337 339 338 336 337 335 336
343 348 350 349 347 347 348 349 349 352 354 355 356 356 356 356 356 356 358 357 355 352 348 344 343 343 338 339 337 336 337 336 333
339 345 349 351 350 348 349 350 349 350 351 353 354 355 357 356 356 355 356 358 355 353 348 343 344 342 339 338 337 336 337 335 331
341 346 349 351 352 352 351 350 351 351 352 352 351 354 354 354 355 356 355 356 355 351 347 342 340 338 337 339 337 336 337 336 335
341 348 350 352 352 354 353 353 355 355 353 353 352 352 355 355 355 355 355 355 354 347 343 338 334 337 334 337 337 337 336 336 336
341 349 350 352 353 360 362 358 357 356 354 354 354 354 355 357 357 357 355 354 351 346 340 331 331 332 327 327 335 334 336 335 333
339 349 350 352 354 355 358 357 357 356 356 355 356 356 357 357 359 359 355 354 350 344 338 331 333 327 331 332 328 328 332 332 332
342 348 350 351 353 355 357 356 356 356 356 356 356 357 358 358 359 358 355 354 349 345 341 335 326 330 333 332 331 330 331 331 330
337 347 349 351 351 353 353 353 354 354 354 356 356 358 358 358 358 357 354 351 348 346 342 335 333 335 333 334 333 333 332 332 330
344 347 350 350 349 351 351 350 351 352 352 354 355 356 357 357 357 356 354 349 345 344 342 336 334 334 336 336 335 336 335 334 332
341 344 348 349 346 347 350 348 349 351 350 352 354 354 356 357 357 355 353 350 347 343 340 338 336 337 337 338 337 333 334 334 333
344 345 347 346 346 348 348 346 347 349 349 352 352 353 355 357 357 355 351 349 347 343 339 338 339 339 339 336 334 332 334 331 331
350 351 350 348 349 349 349 349 351 352 353 354 355 356 356 357 354 352 350 346 342 340 340 341 340 339 339 338 331 332 327 329 329
345 345 344 343 347 349 350 350 350 353 356 354 355 355 355 351 350 348 345 341 340 339 339 339 339 339 336 331 333 333 330 328 326
347 346 345 344 345 348 351 351 353 353 353 352 353 351 348 346 344 342 341 339 339 340 339 338 340 337 334 333 332 332 331 326 327
347 347 345 344 344 348 351 351 351 350 349 350 351 348 347 346 344 344 342 336 339 339 338 336 337 335 330 328 329 332 332 331 329
341 347 347 347 347 347 349 349 349 349 349 350 348 346 346 344 343 343 340 336 332 331 331 331 330 331 331 331 331 331 328 327 326
330 332 336 345 346 347 347 347 347 347 346 345 344 343 342 338 338 338 337 334 332 331 324 327 328 329 330 327 324 324 323 321 319

GFSFLT1_925_thetae_015.txt.gz
Theta_e
342 349 350 347 347 350 351 350 354 355 359 364 364 362 362 361 361 357 354 353 350 345 344 344 347 349 346 341 342 342 342 339 338
339 347 350 348 346 346 348 350 354 355 358 362 363 360 364 363 362 360 353 351 351 350 343 342 343 349 345 342 340 342 340 337 339
339 344 349 348 347 346 347 348 351 354 357 361 361 360 362 362 362 363 360 357 356 350 346 342 344 346 344 341 340 342 339 337 338
338 341 348 349 347 345 346 347 348 352 354 357 359 359 359 359 360 360 362 360 357 355 349 347 344 346 343 339 341 340 339 338 338
338 339 345 348 348 347 346 347 346 348 351 352 356 356 359 360 359 359 359 361 359 358 353 349 346 346 343 340 340 339 339 339 337
338 339 341 347 348 349 349 348 348 347 349 349 351 355 357 360 359 361 359 361 360 359 357 352 347 346 343 341 339 338 337 337 338
337 337 347 346 349 353 353 351 351 350 348 347 349 351 352 356 359 359 360 359 359 360 358 353 346 346 343 340 337 334 335 332 338
336 336 343 350 351 359 361 357 356 354 351 351 350 352 353 354 358 359 359 358 360 360 358 353 346 344 343 337 330 334 331 326 338
336 336 337 350 352 355 364 361 360 359 356 356 354 356 356 356 360 359 359 359 360 360 358 353 348 344 341 333 336 332 331 328 336
337 336 339 342 351 353 359 357 361 360 361 358 358 359 363 360 364 364 364 362 361 360 358 352 347 343 340 338 335 333 330 328 335
337 340 341 341 349 353 356 356 356 357 358 361 362 364 362 364 364 367 366 363 361 360 354 349 347 343 338 336 336 336 332 327 332
338 336 339 340 348 350 356 357 358 360 359 362 363 364 364 364 365 365 365 363 360 357 351 349 346 343 337 336 339 337 334 330 331
335 340 340 342 349 350 356 358 356 359 359 360 361 361 362 362 362 363 362 360 357 355 352 347 343 340 337 336 337 339 336 332 334
337 341 343 349 350 356 358 356 355 360 358 358 356 355 357 359 360 360 360 358 354 351 350 346 343 340 338 339 340 340 338 336 329
346 346 348 351 355 354 355 354 356 360 358 354 354 355 357 359 361 359 357 355 353 350 345 341 340 339 339 341 342 340 337 328 329
351 352 351 350 353 353 352 353 354 358 360 358 357 358 359 360 359 356 354 353 349 347 343 341 340 340 341 342 340 339 335 333 329
350 351 352 351 352 354 359 356 357 361 359 358 358 360 357 355 352 350 349 348 346 343 343 342 342 342 341 339 338 333 334 331 329
346 346 345 347 350 352 354 355 354 355 356 357 356 351 349 348 347 347 342 339 342 341 340 340 339 340 340 338 337 334 333 331 330
347 346 345 346 347 350 353 354 354 354 355 353 352 350 348 347 346 342 338 335 332 337 335 334 334 336 334 328 327 329 329 330 330
333 341 344 346 347 348 350 351 351 351 352 351 351 349 348 346 345 343 342 341 339 337 328 331 329 329 329 330 329 328 329 328 327

GFSFLT1_925_thetae_021.txt.gz
Theta_e
345 345 344 342 345 346 349 351 356 360 361 360 361 360 359 355 355 358 354 353 351 351 351 350 348 348 347 347 338 345 341 342 340
343 341 347 345 343 345 348 350 356 357 363 362 362 363 362 359 357 357 359 353 356 351 346 344 348 347 347 347 340 341 342 341 339
341 340 345 346 344 345 349 350 355 357 363 363 363 360 363 362 359 356 358 361 353 355 348 348 349 347 347 346 342 337 343 343 338
337 342 343 347 346 346 349 350 353 357 362 363 364 363 361 363 364 361 357 359 357 353 353 346 348 348 347 347 343 340 341 343 339
337 337 346 347 346 346 350 351 351 356 363 363 364 365 363 362 364 364 361 358 359 354 352 352 347 348 347 347 345 340 343 343 339
339 339 344 347 346 348 350 351 351 355 361 364 365 365 365 364 362 364 363 359 357 358 354 352 350 348 347 348 346 340 339 342 341
339 341 341 344 346 347 349 351 352 353 357 362 364 366 365 364 364 363 363 363 359 358 362 357 352 349 348 347 346 342 341 341 341
337 341 347 344 346 345 347 349 351 353 354 356 362 364 365 363 363 364 364 363 364 360 360 361 357 352 349 347 346 343 341 340 340
333 336 346 346 346 345 345 346 349 351 353 355 357 362 363 363 362 363 362 363 362 364 361 361 360 355 351 350 347 345 343 341 341
335 336 345 346 345 350 346 347 348 350 352 354 355 357 361 361 361 361 361 361 362 363 364 362 363 358 354 351 350 347 344 342 340
331 339 340 347 348 347 353 350 349 350 350 352 353 354 357 359 359 360 361 361 362 362 363 363 363 361 357 352 350 349 345 342 340
328 327 331 333 344 349 351 354 351 350 349 351 351 351 352 356 358 359 360 361 361 362 361 363 363 362 358 353 350 349 345 341 339
339 333 330 331 334 343 352 351 355 351 350 350 351 350 353 355 356 358 360 361 362 362 363 364 363 361 359 355 350 348 344 339 335
341 339 330 331 333 339 350 352 357 355 352 351 353 353 354 358 358 359 362 362 362 364 364 364 362 358 353 351 349 346 342 338 335
337 346 344 335 332 347 348 354 358 359 359 356 354 362 359 368 365 367 366 366 366 365 360 357 353 350 347 347 346 344 341 339 337
353 352 354 362 362 363 362 359 360 361 365 365 362 364 368 370 370 370 368 367 359 355 356 351 347 346 344 343 342 341 339 337 336
357 358 358 361 361 364 365 368 367 368 367 366 367 366 366 364 364 362 360 356 354 351 348 346 345 343 342 341 340 341 341 340 340
351 353 356 361 364 364 364 365 365 364 364 365 362 359 357 355 353 351 351 350 348 348 347 346 343 343 342 341 342 342 340 339 338
341 350 351 351 357 359 361 363 360 360 360 358 355 350 350 346 344 343 343 342 340 344 344 344 343 343 342 342 340 338 337 333 333
331 335 347 352 352 354 356 356 356 356 356 355 351 348 345 344 342 341 339 338 337 330 336 341 341 340 340 339 338 337 334 334 330

GFSFLT1_925_thetae_024.txt.gz
Theta_e
340 340 342 342 343 345 345 346 351 354 353 353 355 356 355 355 354 353 350 354 352 352 352 354 349 352 351 350 347 343 340 340 338
342 340 340 341 343 345 345 347 351 354 354 354 355 355 354 355 354 353 354 356 354 355 353 352 350 350 351 349 346 341 339 341 340
343 342 340 340 340 343 346 346 352 354 355 355 355 356 355 355 354 355 356 356 354 354 352 350 349 348 348 347 346 342 340 341 340
344 344 343 342 340 343 345 347 352 355 356 355 357 357 357 357 356 354 354 354 357 353 353 350 347 346 347 347 346 343 337 339 341
342 343 340 343 341 341 344 347 351 355 358 357 357 359 359 358 358 357 356 353 355 358 355 350 346 346 347 347 346 345 336 338 342
336 335 336 341 343 342 343 347 349 353 358 359 358 359 359 360 360 359 356 354 355 356 359 354 351 348 348 348 347 346 343 337 338
336 337 339 341 344 342 344 347 348 353 355 360 360 360 359 359 360 361 359 356 355 355 357 356 354 351 348 348 347 346 345 341 339
336 335 340 343 343 344 346 347 348 351 355 359 360 361 361 360 359 360 361 360 357 356 356 357 355 353 351 349 347 347 346 343 340
333 336 336 341 344 345 345 348 348 349 354 360 360 361 362 361 361 360 360 361 360 358 357 357 357 355 353 351 349 347 346 345 342
332 329 339 340 343 344 346 348 349 349 352 358 361 361 362 362 362 361 361 360 361 361 359 357 359 359 355 352 351 349 347 346 343
328 331 335 340 342 343 346 348 349 350 350 354 359 360 361 362 361 361 361 361 361 361 362 359 358 358 358 356 354 352 349 347 344
328 328 330 335 341 343 343 345 347 349 350 352 354 357 360 361 361 360 360 360 360 360 361 361 360 360 358 356 355 356 353 347 343
337 336 330 327 341 347 347 344 345 347 348 351 352 354 355 359 360 359 359 359 359 360 360 361 361 361 360 359 359 358 354 349 345
337 335 337 332 327 335 347 350 346 345 347 349 351 352 353 355 358 358 358 358 359 359 360 360 361 360 359 359 359 358 352 347 344
340 335 337 340 327 325 335 346 349 347 346 347 349 350 351 351 355 356 357 358 359 359 360 359 356 356 353 354 354 352 348 346 344
356 355 355 356 335 327 329 343 351 350 348 347 348 349 349 352 353 355 357 358 360 360 358 354 350 350 346 348 348 347 346 344 341
352 353 355 357 357 355 357 354 349 351 352 350 351 353 354 358 359 360 360 360 359 357 354 350 347 348 345 345 344 344 342 340 338
345 349 350 353 354 357 358 360 359 359 361 355 361 362 363 363 360 358 352 351 351 351 350 349 345 345 345 342 340 341 339 339 339
335 342 347 346 346 347 349 350 354 362 363 361 359 357 351 346 341 337 334 333 338 344 348 348 349 347 345 343 342 340 341 340 339
332 339 344 346 347 349 349 327 322 350 355 356 354 349 344 340 339 338 338 336 336 328 339 343 343 342 342 341 340 339 338 335 334

GFSFLT1_925_thetae_027.txt.gz
Theta_e
338 341 342 342 342 342 344 346 349 350 350 352 353 353 353 352 353 352 351 352 352 349 351 353 352 352 352 350 349 346 342 339 338
338 339 341 341 342 341 343 344 347 349 350 351 354 354 353 353 353 352 352 352 352 347 349 352 351 353 351 350 350 347 344 340 339
339 339 340 341 341 341 342 343 345 349 350 350 352 354 354 353 353 353 353 353 351 349 351 352 351 353 350 350 350 348 345 341 338
340 339 339 339 340 341 342 343 344 348 350 350 350 352 353 353 353 353 353 352 351 349 353 353 353 352 349 350 351 348 345 341 338
337 340 339 339 338 339 341 343 344 348 350 351 350 352 352 352 353 353 354 353 352 350 354 353 353 352 350 349 350 347 345 342 338
334 338 340 339 338 337 340 343 344 348 350 352 351 352 353 353 353 353 353 353 354 352 354 355 352 351 350 348 347 346 346 344 340
333 335 336 337 337 337 338 342 344 349 351 352 352 353 354 354 355 354 354 353 353 353 352 354 354 352 350 347 346 346 346 345 343
327 330 334 336 340 339 338 341 344 348 351 354 353 354 355 355 355 355 355 354 354 353 353 353 354 355 351 347 347 347 347 346 345
325 331 334 335 339 340 339 341 344 346 350 355 355 355 356 356 356 357 357 356 355 354 353 353 353 354 355 351 349 347 347 346 345
324 325 332 335 339 340 340 341 344 346 350 352 356 356 356 356 356 356 358 358 357 356 354 354 353 352 353 352 352 351 350 348 346
326 327 328 333 334 336 341 342 344 345 348 353 356 357 357 358 357 356 356 358 358 358 356 355 355 354 353 352 353 353 352 350 346
326 327 327 332 335 337 340 342 345 346 348 352 356 357 357 358 359 358 357 357 357 358 358 356 355 354 353 354 354 354 355 352 346
327 324 323 328 337 339 340 343 346 346 347 350 356 357 357 358 359 359 359 358 358 358 358 359 357 355 355 355 355 355 356 354 346
333 329 329 329 334 340 339 343 345 347 347 348 352 355 357 358 359 359 359 359 358 359 358 359 358 357 357 356 357 357 357 354 349
347 346 347 345 323 329 342 341 342 344 346 348 349 351 353 356 357 359 358 358 358 358 358 358 358 359 357 355 357 358 355 351 348
353 353 353 355 351 347 353 334 344 342 344 346 348 349 351 352 355 358 358 357 357 357 358 358 357 356 352 349 355 355 355 347 347
351 351 352 353 355 355 353 356 357 345 347 344 345 346 349 350 351 355 356 356 357 357 358 358 355 351 347 346 345 346 345 346 345
342 344 343 344 345 344 342 340 342 349 353 354 346 345 346 348 349 352 354 353 356 358 358 356 352 350 347 343 340 341 345 345 343
336 340 343 343 344 345 339 331 328 332 338 347 350 354 349 353 350 342 336 339 338 352 352 349 348 347 343 341 343 347 344 342 341
332 336 339 333 334 343 344 345 338 333 336 336 335 333 341 338 337 337 340 341 339 333 339 333 332 335 337 342 338 343 340 339 339

GFSFLT1_925_thetae_030.txt.gz
Theta_e
341 344 345 345 345 344 343 346 346 347 348 349 349 349 349 349 350 349 350 349 348 348 347 348 349 351 353 353 350 348 347 346 342
338 337 342 343 344 344 343 344 346 348 349 349 349 349 349 349 350 350 350 350 350 349 349 349 347 349 352 352 351 349 347 344 340
337 337 337 341 342 342 343 343 345 347 349 349 349 350 350 350 350 350 350 350 351 351 350 351 347 351 351 352 352 350 348 344 342
336 335 336 337 340 341 342 342 343 346 348 349 349 351 351 351 351 351 351 351 351 351 351 351 347 350 351 351 352 351 349 346 343
334 335 336 336 338 339 341 341 342 344 347 348 349 351 352 352 351 351 351 351 351 351 351 351 348 348 351 351 352 350 350 348 344
327 334 336 336 335 338 339 340 341 343 346 348 348 349 352 352 352 351 351 351 351 351 351 351 349 352 351 352 351 350 349 349 347
329 332 333 334 335 336 338 340 341 342 344 347 348 348 350 351 352 352 351 351 351 351 351 351 349 351 351 352 351 349 348 348 347
324 329 332 334 336 335 336 339 341 342 345 346 348 349 349 350 351 351 351 352 352 352 351 351 351 349 352 352 351 349 348 347 346
320 322 325 329 336 337 335 338 341 342 345 347 349 349 349 350 351 351 351 351 351 351 352 352 352 350 351 351 350 350 350 346 345
319 319 324 328 331 337 336 337 340 342 345 348 350 350 350 351 352 352 352 352 352 351 351 352 352 351 349 349 351 350 350 349 345
319 319 321 326 329 333 338 338 339 341 345 349 351 351 351 352 353 353 353 353 353 353 352 351 352 351 351 349 350 351 352 350 348
319 320 323 324 329 333 336 338 339 341 344 348 352 352 352 353 354 354 354 355 355 354 353 352 352 351 350 350 349 350 351 352 347
321 322 323 325 328 333 334 338 340 342 344 348 351 354 354 354 354 354 354 355 355 356 355 354 353 353 352 351 351 350 350 351 348
325 325 327 328 328 335 335 337 341 343 344 347 349 352 354 355 355 355 354 354 355 355 356 356 354 354 354 351 353 352 352 351 346
340 347 351 343 338 337 329 339 343 343 344 345 348 352 354 355 356 356 356 356 356 355 356 356 357 356 354 352 352 353 353 353 352
352 353 352 351 352 353 353 340 341 340 340 344 346 348 353 355 356 357 357 357 357 357 357 357 357 357 356 354 352 352 353 352 351
347 346 350 351 350 347 346 346 346 348 351 348 346 345 348 350 354 355 357 357 357 357 357 357 357 357 356 355 348 348 351 348 341
342 341 340 340 338 334 331 329 333 338 345 351 350 345 342 346 349 351 356 356 355 357 357 357 357 357 355 350 341 335 339 335 339
337 335 333 338 341 341 338 335 331 330 334 336 342 351 349 344 346 348 349 344 345 355 357 357 357 354 350 342 342 342 336 332 333
336 339 339 339 339 339 340 341 340 337 334 339 339 338 346 344 342 341 340 342 341 333 339 354 349 344 343 337 334 332 330 330 333

GFSFLT1_925_thetae_033.txt.gz
Theta_e
349 351 350 350 353 353 351 350 351 350 350 351 351 351 351 351 351 352 352 352 351 352 351 351 354 350 350 351 351 351 349 347 347
345 349 350 350 351 350 349 349 350 350 350 351 351 351 351 351 351 352 352 351 351 352 352 352 353 351 350 350 352 352 350 348 347
341 343 346 348 350 350 349 348 349 350 350 350 351 351 351 351 351 351 351 352 352 351 351 351 352 349 350 349 352 352 350 348 346
338 340 342 343 348 349 349 348 348 350 350 351 351 351 351 351 351 352 352 352 352 351 351 350 351 350 350 350 352 352 351 349 347
336 340 343 342 342 345 346 348 348 348 350 351 351 351 352 352 352 352 352 353 352 351 351 350 351 351 351 353 353 351 351 351 347
334 336 339 341 341 343 347 347 347 347 348 350 351 351 352 353 353 353 353 353 353 352 351 351 352 353 352 353 354 352 350 351 349
332 335 340 342 343 346 347 345 346 346 347 348 350 351 352 353 354 354 354 354 353 352 352 352 351 351 352 352 353 353 351 351 351
334 334 337 342 344 349 350 347 347 346 346 348 349 351 352 354 354 354 354 354 354 353 353 352 352 351 352 352 353 352 351 352 351
335 331 334 337 343 346 346 348 347 346 347 347 349 351 351 353 354 355 354 354 354 354 354 353 353 352 352 352 351 351 350 351 350
335 333 334 335 336 341 346 344 345 346 347 347 349 351 352 352 354 355 355 355 355 355 355 354 354 353 352 352 351 349 349 350 350
333 334 334 336 332 337 341 340 340 344 346 348 350 351 352 352 353 354 354 355 355 355 355 355 355 354 353 352 352 350 347 350 350
332 333 335 334 330 331 336 340 342 344 347 349 351 352 353 353 352 353 354 355 355 355 355 355 356 355 354 353 353 351 349 349 348
329 328 330 333 330 333 335 339 341 345 347 350 353 353 353 353 353 354 355 356 356 356 355 355 355 355 355 354 353 352 350 349 348
331 333 333 330 332 340 342 342 343 347 348 352 351 353 354 355 355 355 356 356 356 357 357 356 355 355 356 354 353 354 351 350 349
339 345 343 333 339 340 341 345 346 350 353 350 351 353 355 357 356 356 356 357 357 357 357 358 357 357 356 356 355 352 353 350 350
353 357 356 355 356 351 347 347 349 351 351 350 351 353 355 357 357 358 358 357 357 357 358 359 359 358 357 356 355 354 352 352 351
360 355 357 356 355 355 351 350 352 353 352 350 352 354 356 357 358 358 359 359 357 358 358 358 359 360 359 357 356 354 352 350 350
351 347 344 341 341 340 339 339 340 343 351 355 353 351 352 354 356 357 359 359 359 358 357 359 359 359 358 358 350 345 349 345 335
346 347 346 346 344 343 340 338 337 339 340 346 355 356 352 350 350 353 355 359 353 358 359 359 358 358 358 357 349 341 340 336 336
339 343 343 344 341 342 342 343 342 339 342 343 344 346 349 348 347 350 351 350 349 350 350 357 357 357 357 356 342 339 336 330 330

GFSFLT1_925_thetae_036.txt.gz
Theta_e
345 351 353 353 354 354 353 351 353 353 355 359 359 358 358 358 358 356 355 355 354 354 352 351 352 355 356 358 358 358 359 356 354
339 349 352 353 353 353 354 354 355 355 356 358 358 358 359 359 358 357 355 354 356 355 354 353 354 354 358 358 357 359 358 355 353
338 343 349 350 352 352 353 354 355 356 357 358 358 357 358 358 358 358 357 357 357 356 355 355 353 356 357 357 357 358 358 355 354
338 341 346 349 350 349 350 352 354 355 357 358 358 357 358 358 358 358 358 358 358 357 356 357 356 356 357 356 356 358 359 356 354
337 339 341 344 346 347 349 351 351 352 354 356 356 357 359 358 358 358 358 359 358 358 357 357 358 357 358 357 356 357 359 357 353
335 337 340 342 343 344 347 349 351 351 351 353 354 356 357 357 357 357 358 360 358 358 359 359 357 358 359 358 356 356 358 357 356
333 336 337 339 341 343 343 346 350 352 350 351 352 353 355 357 358 358 358 359 359 359 359 360 359 359 360 358 357 356 356 357 356
330 332 335 337 342 344 348 347 349 353 351 350 351 354 354 357 359 359 359 359 360 360 360 360 359 359 359 359 357 354 355 356 355
332 333 332 332 336 345 350 350 350 350 352 350 351 354 356 356 359 360 360 360 360 361 360 360 360 360 360 360 358 354 351 355 355
331 332 333 334 335 340 344 346 348 350 352 351 352 354 357 358 360 361 361 361 361 361 361 361 361 361 361 360 359 355 351 350 354
330 331 332 334 334 335 336 339 339 342 347 353 354 356 357 358 360 361 362 362 362 362 362 361 362 361 361 361 360 358 354 350 352
332 332 333 334 333 332 333 335 336 338 345 350 354 357 358 359 359 359 360 363 363 362 361 361 361 360 362 361 360 358 356 353 351
332 332 332 333 331 331 333 336 338 342 345 348 355 356 357 357 358 359 360 362 362 361 360 360 360 360 361 361 361 359 356 354 352
340 338 335 334 335 335 335 338 341 343 345 349 352 353 354 356 358 360 360 361 361 361 360 359 360 361 360 361 361 361 358 354 352
345 343 336 337 341 338 339 347 348 348 356 350 352 353 355 357 359 358 358 361 362 362 361 362 362 361 360 360 361 360 359 356 353
348 342 342 346 342 344 346 351 349 352 354 353 354 355 357 359 360 360 359 361 362 361 361 359 361 361 360 360 359 361 359 357 355
347 350 355 354 355 353 356 356 355 355 357 356 356 357 359 360 362 361 361 360 361 361 360 360 359 360 360 359 359 361 360 355 352
352 357 358 358 358 356 356 356 358 358 357 356 357 359 359 360 360 360 362 361 360 360 359 358 360 360 360 359 360 361 361 357 343
355 354 350 349 348 347 345 345 347 348 353 358 356 356 355 354 355 357 359 359 361 359 359 359 358 357 356 357 359 360 361 357 354
349 351 351 349 348 348 349 348 348 347 348 348 349 351 353 354 350 350 351 355 357 359 357 358 358 357 358 358 358 358 358 355 352

GFSFLT1_925_thetae_042.txt.gz
Theta_e
345 349 352 355 357 355 352 351 352 355 361 362 363 361 362 358 357 360 349 354 353 348 353 354 357 353 356 356 356 354 358 357 355
344 347 350 353 357 355 353 351 352 353 358 362 363 362 363 363 357 361 358 352 355 355 350 355 351 353 355 356 358 355 357 358 359
343 345 349 354 356 356 354 352 352 353 356 361 363 364 363 364 363 359 359 356 356 355 358 351 355 357 355 359 359 359 359 360 356
341 346 349 352 355 356 355 353 352 353 355 361 364 365 365 364 365 363 361 359 358 359 355 360 353 361 360 359 359 359 360 358 358
340 343 349 351 354 355 356 355 354 354 355 358 363 366 366 365 365 366 364 361 360 360 361 357 360 357 358 359 357 361 360 361 356
342 344 349 351 353 354 357 357 356 355 355 356 362 365 367 367 366 366 366 365 362 361 361 363 359 363 362 359 361 361 362 361 360
342 347 348 350 351 354 355 356 357 357 357 356 357 363 366 367 367 367 367 366 366 363 363 362 363 362 363 364 362 362 361 362 362
343 347 346 350 350 356 357 357 358 358 358 358 358 358 363 364 365 367 366 366 367 367 365 365 364 364 364 363 364 363 362 362 362
342 343 342 343 341 349 354 362 359 359 358 359 359 360 361 363 364 365 367 366 366 366 367 366 367 366 365 365 365 365 363 362 362
335 334 336 338 340 346 351 349 353 360 358 356 359 360 362 362 364 365 366 367 366 366 367 367 367 368 367 365 366 365 364 362 362
338 335 335 340 336 341 338 338 341 348 357 358 357 360 359 363 365 366 367 368 368 368 367 368 368 368 368 367 366 365 365 363 361
333 335 339 339 338 336 339 340 344 349 351 359 362 359 363 360 365 365 367 369 368 368 368 368 369 368 368 368 367 366 365 365 362
343 344 346 349 345 345 345 345 342 353 353 357 361 360 360 363 360 365 367 368 369 369 369 369 369 369 368 368 368 367 367 365 363
342 344 346 345 346 347 345 341 343 348 349 348 357 361 361 361 364 362 366 367 369 370 370 370 370 369 369 368 368 368 367 367 364
340 343 344 348 349 349 346 343 345 350 352 349 346 346 362 364 365 365 365 368 370 370 371 370 370 369 369 369 369 369 368 368 367
337 341 344 346 353 348 347 345 347 353 349 354 353 355 361 364 366 368 365 368 370 371 371 371 371 369 369 369 368 369 368 367 367
337 340 345 345 353 361 361 355 355 356 357 357 362 362 366 366 366 368 368 367 369 369 369 371 370 370 369 367 368 368 366 367 367
336 342 343 348 357 364 366 362 362 362 362 361 365 366 367 368 367 368 369 367 367 368 368 368 369 368 365 365 366 363 359 362 362
337 343 344 353 357 357 359 356 361 362 363 364 365 366 366 365 364 366 366 368 366 361 364 364 362 359 361 359 358 357 357 357 357
331 337 343 351 358 356 356 354 354 355 358 361 365 368 364 363 363 364 367 367 367 365 346 349 353 354 353 352 351 351 351 351 353

GFSFLT1_925_thetae_045.txt.gz
Theta_e
351 350 351 349 348 348 348 349 352 355 356 355 355 357 356 352 358 353 351 349 347 345 350 351 354 354 358 357 355 352 352 354 355
349 349 351 350 349 348 348 349 353 354 357 355 357 357 358 355 352 360 355 349 350 356 348 353 352 353 355 358 355 352 353 357 355
346 349 351 352 350 349 348 349 352 354 357 357 357 358 359 359 355 353 361 356 349 348 356 348 355 355 357 354 356 354 352 355 358
340 347 351 353 352 350 349 349 351 353 356 359 359 359 358 360 360 357 354 361 355 347 353 356 349 351 358 355 356 355 354 353 358
337 344 349 353 352 351 350 349 350 352 355 359 360 361 361 360 362 361 357 357 360 350 352 352 357 357 356 358 358 356 356 358 358
335 342 347 352 353 352 351 350 349 351 352 357 360 361 362 362 361 363 362 359 356 359 353 353 353 356 360 359 357 358 359 356 357
335 342 346 350 353 352 352 351 350 350 352 353 359 361 363 363 363 363 363 363 360 356 359 358 357 355 357 361 359 358 357 357 356
340 340 346 349 351 352 353 352 351 351 351 353 355 362 363 364 364 364 363 363 364 363 358 360 360 359 360 359 362 359 358 357 359
338 340 344 342 346 350 352 354 353 353 352 353 354 358 362 364 365 365 364 365 364 365 364 361 361 362 360 361 362 362 360 359 360
332 331 332 337 339 343 351 354 355 355 355 354 354 355 358 363 364 365 365 365 366 365 366 366 363 363 363 362 362 362 363 362 361
333 336 336 333 338 336 339 353 356 356 356 357 356 356 357 357 363 364 365 365 365 366 366 366 367 365 364 364 363 362 363 363 363
343 343 344 344 345 345 344 342 341 358 358 358 360 359 360 359 362 363 364 364 365 365 365 365 365 366 366 366 365 365 363 364 364
340 341 342 346 346 345 344 343 342 350 358 358 358 360 362 363 362 364 364 365 365 366 366 365 365 366 366 366 366 366 366 365 364
339 340 340 342 345 349 349 344 343 346 345 351 360 358 356 359 360 363 365 365 366 366 366 366 366 366 366 367 367 366 367 366 366
334 338 339 341 342 345 348 352 345 344 350 344 343 355 360 359 359 360 364 366 367 368 367 367 367 367 368 367 367 368 367 367 367
332 333 339 340 341 347 349 357 352 348 348 354 359 345 359 359 359 359 362 363 367 369 368 368 368 368 368 368 368 368 368 368 368
330 334 336 339 342 347 358 362 363 363 364 360 354 355 360 364 365 365 365 363 365 369 370 369 369 368 368 367 367 368 367 367 367
324 325 335 335 342 344 356 357 360 360 361 362 367 359 366 368 367 367 368 366 368 369 368 369 369 369 368 368 367 366 362 365 365
322 321 320 334 337 343 353 354 355 355 355 358 360 368 368 370 368 367 368 366 353 358 365 367 367 367 368 359 360 358 356 356 356
321 322 321 333 334 342 345 355 353 353 353 355 358 357 367 364 366 365 368 368 361 342 342 349 350 353 355 353 352 355 355 353 352